Dewpoint
31 12 13 11 19 16 21 22 21 20 20 20 24 25 19 21 21 21 19 20 22 17 14 14 13 12 13 8 22 22 19 16 14 12 12 12 13 15 14 14 14 14 14 21 19 17 17 20 20 21 21 22 21 17 21 28 31 33 33 32 31 32 33 37 39 41 43 46 51 53 52 53 55 57 60 60 58 56 57 59 60 60 60 60 59 59
24 9 18 26 22 21 22 22 21 20 20 20 22 23 19 23 19 19 18 21 21 16 13 11 9 12 14 8 24 21 17 14 11 11 10 10 10 13 13 14 14 14 18 19 15 16 16 13 23 20 18 22 19 21 21 25 29 29 32 32 31 31 32 34 36 38 40 43 46 50 54 57 57 57 56 56 59 60 58 58 59 59 58 59 59 59
11 8 19 22 24 23 22 21 21 21 22 24 22 21 22 17 24 18 20 20 18 16 9 8 10 14 10 21 23 20 17 15 13 13 12 10 11 12 12 12 12 13 13 12 12 15 11 19 15 16 20 20 19 21 23 24 26 27 29 31 31 32 33 33 35 37 38 40 43 46 49 57 57 58 58 58 58 58 59 58 58 59 59 59 59 58
13 15 16 23 25 22 21 21 21 21 25 23 20 19 18 24 20 16 21 19 17 13 10 15 13 10 7 27 25 22 18 19 23 15 14 13 10 11 9 10 11 11 12 10 8 9 11 10 11 16 17 17 20 20 20 22 25 26 25 26 29 31 33 34 34 36 36 38 43 45 47 53 57 57 57 58 59 59 58 58 59 59 59 59 58 58
-2 2 24 23 26 21 21 26 24 20 14 28 27 24 21 22 20 22 16 15 13 12 23 13 7 1 8 15 21 24 23 18 12 8 7 10 14 13 15 13 12 9 9 11 9 10 9 13 16 16 16 14 17 19 21 23 22 23 26 27 30 31 31 33 35 35 36 37 40 43 46 49 53 57 57 57 57 57 58 58 58 59 59 59 57 58
17 20 26 23 27 27 26 14 24 25 15 17 27 23 23 24 21 18 18 16 7 5 15 10 -3 -5 6 5 21 22 11 10 9 5 4 6 8 9 9 9 10 15 12 10 10 10 11 13 13 13 14 16 17 15 18 20 22 22 24 26 28 30 32 33 34 35 35 36 38 39 42 45 47 48 52 53 53 55 56 56 56 58 58 58 57 57
10 25 26 26 25 29 26 22 27 24 17 18 19 26 25 25 24 21 16 14 3 6 11 12 -3 -2 -2 6 20 15 10 6 2 3 3 5 6 7 9 10 7 2 5 9 7 8 8 8 13 13 13 17 16 14 16 18 20 21 26 27 29 29 30 35 35 35 35 35 36 38 41 44 47 48 49 52 55 56 56 57 57 56 57 58 57 57
23 22 25 29 24 24 21 15 27 23 21 12 26 26 27 23 17 18 17 17 9 13 19 19 10 0 3 7 19 12 3 1 -1 -1 2 4 5 6 6 4 5 7 6 9 9 6 6 7 8 11 15 14 15 16 18 20 20 21 21 28 29 28 28 30 32 34 35 34 35 38 40 42 45 48 49 50 51 54 55 57 57 55 55 56 57 57
21 25 22 25 21 18 17 24 27 27 21 21 22 26 23 17 19 19 18 11 9 11 9 10 18 9 9 14 9 6 4 1 -2 -2 1 5 6 5 4 4 3 4 7 5 6 6 7 8 10 9 9 11 11 16 21 19 16 22 24 25 30 30 24 27 32 33 33 35 35 36 39 41 43 45 47 50 51 52 52 55 56 56 56 56 56 57
21 23 23 22 20 16 24 22 23 28 20 19 24 27 27 24 24 23 15 4 3 7 6 3 11 10 5 3 -10 8 3 -1 -2 -2 -0 4 5 3 4 5 4 3 5 6 4 5 6 7 7 9 9 11 14 16 17 16 18 20 20 22 22 26 28 24 30 32 33 34 34 35 36 41 42 44 45 47 50 51 53 53 54 56 56 56 56 56
21 24 29 24 24 26 22 21 25 19 14 16 26 18 13 12 6 3 5 12 13 5 7 7 3 -9 -10 -8 1 6 6 -2 -2 -4 -0 3 3 1 1 1 4 4 5 3 3 4 6 6 7 9 9 10 11 16 17 20 18 17 19 19 20 20 24 25 24 33 34 34 34 34 37 39 40 42 43 44 45 48 50 50 53 55 56 56 55 56
26 27 28 28 30 26 25 26 28 28 25 17 4 7 7 5 5 0 7 9 5 -1 9 3 -3 -6 -11 -16 6 -2 -3 -3 -5 -3 -1 1 0 -0 0 1 2 2 2 1 2 3 4 5 7 8 9 9 11 14 15 18 20 19 17 18 18 19 21 22 24 26 34 34 35 36 37 38 39 40 42 43 43 45 46 48 49 53 56 56 56 56
24 24 26 29 30 26 29 22 25 24 14 10 6 6 2 -1 -3 -9 3 -5 -5 -1 10 1 -6 -18 -20 -15 -3 -2 -5 -5 -6 -5 -0 2 0 0 1 2 4 4 2 3 3 4 6 7 8 9 9 11 12 14 17 18 18 17 17 17 19 20 19 21 23 26 29 33 35 35 35 37 37 39 41 42 42 44 45 46 46 48 52 55 54 55
16 27 23 26 27 26 28 18 16 12 2 7 6 6 -1 -9 -9 -7 -7 -6 -7 4 -16 -20 -5 -11 -8 -4 5 -3 -5 -7 -6 -3 5 4 -1 -1 -1 2 2 5 4 4 5 6 8 8 10 10 11 12 13 12 12 17 16 18 18 17 17 19 20 21 25 24 27 32 34 35 35 35 36 38 39 40 40 42 42 43 44 45 46 50 53 54
12 13 19 25 19 27 19 14 10 10 -1 1 17 4 -1 -9 -12 -8 -9 -11 -6 -5 -2 -3 -2 1 -2 11 7 -3 -5 -6 -4 -0 5 3 2 4 2 2 0 2 2 5 7 8 9 10 11 13 13 13 13 15 16 14 15 17 18 20 18 18 20 20 21 24 26 30 34 35 35 35 35 36 37 37 38 38 40 42 42 43 45 46 51 54
14 13 20 27 27 20 16 22 16 14 4 10 8 13 6 6 1 -9 -0 -2 -2 -6 2 6 4 -4 -8 4 3 -1 -5 -4 -1 2 2 -0 1 3 1 2 2 3 3 5 6 8 10 10 10 11 13 12 13 15 16 16 17 17 17 17 19 19 20 21 21 26 28 29 33 35 35 35 35 36 37 37 38 38 39 40 41 42 43 45 47 53
16 11 25 22 19 8 2 17 21 16 3 10 10 6 3 10 4 4 4 14 10 6 2 8 -2 -1 -8 -2 -2 -2 -5 -5 -0 -1 -2 -1 -1 -2 -2 1 2 4 5 6 9 9 10 13 14 14 13 11 10 14 15 15 16 17 18 19 18 19 20 21 22 24 27 30 33 35 35 35 36 36 36 36 37 37 38 39 40 41 42 43 45 49
11 14 26 23 19 13 16 14 17 19 17 4 -3 -11 14 9 5 -2 -9 -0 -2 -7 -2 -2 1 -12 -9 -7 -1 -4 -5 -3 -2 -2 -3 0 -0 -1 4 4 4 5 6 8 10 11 11 11 12 10 11 16 15 14 15 15 17 17 19 19 19 19 21 22 22 23 26 31 34 35 36 35 35 35 36 36 37 37 38 38 38 39 40 41 43 44
17 10 21 26 17 17 21 18 9 13 21 -2 -7 19 -15 -10 -6 -2 1 -7 -14 -11 -11 -9 -11 -3 -9 -9 -0 -4 -5 -3 -3 -1 -1 -2 -0 1 2 4 5 5 8 9 8 10 12 12 12 16 14 15 15 15 14 16 18 20 20 22 22 22 21 23 24 24 26 32 35 37 36 35 35 35 36 36 37 37 39 38 37 38 40 41 42 43
23 7 3 21 17 15 16 7 -1 1 12 16 15 3 16 -19 -4 -9 -10 -1 -11 -9 -4 -0 -2 -7 -2 -3 -2 -3 -6 -1 -3 -2 0 1 -0 -0 1 3 5 7 9 11 12 14 15 16 14 12 14 13 14 15 16 18 20 20 19 17 18 18 24 25 25 26 26 29 34 37 36 36 35 35 36 36 37 37 38 39 38 38 39 40 40 41
16 16 3 13 16 5 -4 2 -1 2 3 -4 -3 -6 -1 8 -1 -4 -2 0 -5 -7 -11 -11 -7 1 3 -2 -3 -1 -3 -1 -2 -0 1 1 1 2 4 6 8 8 9 8 10 11 12 13 17 14 13 13 13 15 16 13 10 17 16 15 12 10 16 24 27 27 28 29 31 34 36 36 36 36 36 36 37 38 38 39 38 38 39 39 39 40
8 12 7 8 3 -1 1 13 9 5 3 -3 -4 -3 -1 -0 -2 -7 -6 5 3 -0 -1 -6 -7 -0 3 1 -1 -1 -2 -1 -0 1 2 3 3 5 6 8 7 8 9 11 14 15 14 12 15 14 11 10 10 8 7 10 10 8 9 12 14 14 12 19 22 24 28 29 30 30 32 36 35 36 36 36 37 38 38 39 39 38 38 38 39 40
11 16 12 9 4 3 9 9 16 15 11 7 1 -1 8 2 2 -2 -6 -1 3 2 1 0 -3 -1 4 3 1 1 0 -0 2 2 1 3 5 5 8 9 11 10 11 11 7 14 15 14 12 11 11 8 9 9 8 9 10 11 12 13 14 16 17 17 15 17 23 29 30 31 31 32 35 36 36 36 36 37 38 38 38 38 38 38 39 39
19 10 3 0 6 -0 -1 7 11 13 12 6 6 6 7 3 5 3 -1 -3 3 6 6 4 4 5 7 4 4 3 3 4 2 2 3 4 5 7 7 6 6 10 13 19 17 15 14 14 11 8 9 9 8 8 9 8 8 9 10 10 11 13 15 16 17 17 19 26 30 32 33 33 34 35 35 35 36 37 38 38 38 39 39 38 39 39
5 7 -2 0 -4 -19 -18 -5 -1 4 5 2 3 9 10 10 9 8 10 11 8 9 7 5 1 2 8 7 6 5 3 1 2 2 5 5 5 5 6 12 12 13 12 12 13 14 14 10 8 8 7 6 7 7 6 7 7 7 8 11 11 11 11 12 13 16 18 20 23 28 31 32 34 34 34 35 35 36 37 39 38 39 38 38 38 37
14 9 1 -5 -8 -11 -11 -11 -2 0 1 -2 4 5 9 10 8 11 8 9 9 9 8 7 4 4 4 4 3 3 2 2 3 4 5 7 9 10 12 11 15 15 16 17 15 14 12 10 8 8 8 6 6 8 7 6 7 7 7 7 9 9 11 12 12 15 19 20 20 21 23 28 30 32 33 33 34 36 37 37 38 38 38 38 37 37
14 14 4 -8 -6 -11 -13 -4 6 5 -0 1 4 10 9 12 12 13 11 9 6 7 7 8 6 4 6 4 2 1 1 2 4 5 5 6 7 7 12 16 16 17 16 14 14 12 10 9 9 8 6 6 5 5 6 5 4 5 6 6 7 8 9 10 12 14 16 17 18 20 22 24 27 30 31 33 34 36 37 37 38 37 37 37 36 36
19 6 7 5 -2 -10 -7 -6 4 7 -0 0 5 7 7 14 16 15 10 8 6 6 4 6 6 9 6 4 2 2 3 4 6 4 4 8 9 12 15 15 20 15 14 13 12 11 9 8 7 6 6 4 4 6 4 3 3 3 3 4 5 6 7 10 11 12 14 15 14 14 16 21 26 30 32 34 35 36 36 37 37 36 37 37 36 35
11 10 6 8 8 4 5 4 5 4 3 4 6 5 5 8 16 15 14 11 9 8 5 4 5 9 6 4 4 2 4 6 6 7 10 10 14 15 15 15 15 15 15 13 11 10 9 9 8 6 5 5 3 2 2 2 2 2 3 3 5 6 6 7 9 12 13 14 14 14 14 14 16 21 24 28 33 35 34 35 36 37 36 36 35 35
11 9 5 8 9 6 6 7 8 8 8 9 9 8 9 10 9 9 10 10 10 11 9 8 6 6 7 5 4 6 8 9 9 10 11 15 15 15 14 15 15 14 13 12 11 10 8 7 6 5 5 3 3 2 1 1 1 2 2 3 4 5 7 8 9 10 10 11 13 14 15 15 15 15 18 22 24 28 31 33 35 36 35 35 35 35
2 1 14 13 13 13 12 11 11 10 11 11 10 9 7 5 6 10 9 8 9 8 7 8 7 4 3 5 6 8 9 10 11 12 15 16 15 15 14 14 13 12 11 10 9 8 8 8 6 5 4 3 2 1 -0 -0 1 2 2 3 5 6 6 7 8 9 10 11 12 14 14 14 15 15 15 18 21 26 27 30 33 35 34 35 35 35
13 9 15 13 9 9 10 10 9 11 10 9 8 7 6 5 5 5 8 6 7 8 3 3 6 5 3 5 9 10 10 12 15 16 16 15 15 14 14 14 12 11 10 10 9 8 7 6 6 5 4 3 1 1 1 -0 1 1 2 3 4 6 8 8 8 9 10 11 12 13 15 16 15 17 17 19 23 24 26 28 31 32 33 34 34 35
17 14 11 10 5 6 9 8 6 9 8 8 9 7 7 7 7 2 -1 2 2 2 6 5 5 2 5 9 9 11 12 14 16 15 15 15 14 14 14 12 12 10 9 9 8 8 6 5 5 4 3 2 2 1 -1 -0 1 1 2 3 4 6 7 7 9 9 11 12 13 15 16 15 17 18 19 20 21 24 25 27 29 30 32 33 34 35
20 16 9 11 6 8 9 7 9 7 2 -1 8 9 3 -2 -2 -1 -1 1 2 3 4 3 3 5 7 9 10 12 14 15 15 16 16 15 14 13 11 11 10 10 9 8 7 7 6 5 4 3 3 3 2 1 1 1 1 2 2 3 3 4 6 7 8 10 12 13 15 17 15 17 19 19 19 19 21 23 24 26 28 30 32 33 34 35
18 17 9 15 9 7 10 9 5 1 1 8 10 12 7 4 4 3 1 2 2 3 3 3 5 6 10 11 13 15 16 16 15 15 14 13 14 12 11 10 9 9 8 7 6 6 7 6 4 3 3 2 2 2 2 2 1 1 3 4 4 5 6 7 8 10 13 14 15 16 19 17 17 19 18 19 21 25 26 27 28 30 31 32 33 34
18 14 15 15 11 10 8 6 -1 -1 -0 3 1 2 10 7 4 4 4 3 4 3 3 5 6 9 12 14 16 16 15 15 14 14 14 14 12 11 10 9 8 8 7 7 5 4 3 4 3 3 2 4 3 2 3 2 3 4 5 4 4 4 5 7 8 8 9 12 15 17 17 18 19 18 19 19 20 24 27 29 29 30 31 32 34 35
18 17 15 8 12 5 5 6 4 6 5 3 1 -1 -0 -4 -4 -1 1 2 3 5 7 8 10 11 13 15 15 15 15 14 13 12 12 12 13 10 9 8 8 8 7 6 5 4 3 4 2 3 4 3 3 4 4 4 6 5 5 6 7 6 6 7 8 7 8 11 13 16 17 18 18 19 19 20 21 23 27 29 30 31 33 34 35 35
18 16 16 7 7 10 6 4 4 3 0 -0 -4 4 5 1 4 7 7 9 7 8 11 13 12 14 15 15 15 15 14 12 10 9 10 11 10 10 8 9 7 7 6 5 4 3 2 2 3 3 4 4 4 4 4 5 6 5 5 6 5 7 6 6 6 6 7 7 11 13 16 17 19 18 19 21 22 24 27 30 31 32 34 34 35 35
18 16 15 14 11 9 7 6 3 0 1 -4 -3 0 7 7 10 10 7 4 6 8 12 14 15 15 16 15 15 14 13 9 9 12 11 10 9 8 6 6 6 5 5 4 3 2 2 3 4 4 5 4 4 5 5 6 6 6 5 6 4 4 5 4 4 5 5 6 7 9 13 17 18 19 20 21 24 24 26 31 32 34 34 35 35 36
18 17 15 12 12 10 7 4 3 5 4 2 -3 5 6 7 11 10 -1 -0 8 10 16 17 16 15 15 15 14 14 13 9 9 10 10 10 8 7 5 5 4 4 3 2 2 2 3 4 3 3 4 4 4 5 6 6 6 6 4 4 3 3 4 3 3 3 3 4 6 8 12 16 18 20 20 21 23 26 28 31 33 34 34 34 35 36
15 15 15 10 9 10 13 7 6 6 8 8 6 4 9 10 8 2 -2 2 14 16 18 17 16 16 15 14 12 12 13 12 11 11 9 8 6 5 4 4 3 3 2 2 2 9 3 2 3 3 4 4 5 7 7 6 5 4 4 2 2 2 1 1 2 3 3 4 5 8 10 14 18 20 22 23 23 24 29 32 33 33 33 34 35 36
12 12 12 14 11 8 9 8 7 8 9 9 8 9 11 6 2 2 6 16 16 17 18 17 16 16 15 14 12 11 11 10 10 8 7 6 5 4 3 2 2 2 2 3 5 4 3 2 3 3 3 4 4 6 6 6 4 3 3 2 1 1 -0 1 1 2 3 5 6 7 10 14 17 21 22 24 25 25 27 31 33 33 33 33 34 36
9 9 7 8 9 10 9 7 4 1 5 10 9 9 10 7 3 8 14 17 21 18 16 16 16 16 14 12 11 10 9 8 7 6 6 5 4 2 2 1 1 1 1 1 1 1 2 2 2 2 3 4 5 6 6 5 3 3 2 0 -0 -0 0 1 2 3 4 5 6 8 11 14 17 21 24 25 26 26 26 28 30 31 32 33 34 35
14 8 7 8 9 5 7 4 3 5 5 12 5 4 12 8 11 14 15 14 19 17 16 15 15 14 12 10 9 8 7 7 7 6 5 4 3 2 2 1 1 1 -0 -0 -1 0 3 1 2 2 2 3 4 4 5 5 2 1 0 -1 -1 1 2 2 3 3 4 6 8 9 12 15 19 23 26 26 27 26 26 27 29 30 31 33 34 35
13 8 8 7 10 4 7 7 7 9 8 11 10 8 11 15 19 20 19 17 17 16 16 14 14 13 10 8 7 7 6 7 6 5 4 3 2 2 0 0 0 -1 -1 -2 -3 0 1 1 1 1 1 2 2 3 4 4 1 -0 -1 -1 0 2 1 2 3 4 4 6 8 10 13 16 19 24 28 29 29 28 27 29 30 30 32 33 34 35
12 15 17 10 9 11 12 10 13 12 10 13 13 15 14 20 18 20 20 17 17 17 14 14 12 10 8 8 7 7 6 6 5 4 3 2 1 1 1 -1 -0 -1 -2 -2 -2 -2 -1 0 1 0 -0 0 1 2 3 2 1 -1 -2 -1 -0 1 2 2 3 3 4 6 8 11 13 16 18 23 28 29 29 29 28 28 28 29 31 33 34 35
12 14 12 9 11 9 7 10 11 11 11 12 11 18 18 19 17 17 17 17 15 14 12 11 9 8 7 7 6 5 5 5 4 3 3 1 0 0 -1 -1 -2 -2 -3 -3 -4 -2 -2 -1 -1 -1 -1 -1 -0 1 1 1 0 -1 -1 0 1 2 2 2 2 3 5 7 9 11 14 16 20 24 28 31 30 30 29 29 30 31 31 32 33 34
10 13 12 11 10 7 7 9 11 17 17 17 17 17 16 16 16 16 16 14 12 11 10 8 8 7 7 6 5 5 5 4 3 2 1 1 0 0 -0 -2 -3 -4 -4 -4 -4 -3 -2 -2 -3 -3 -3 -2 -0 -0 0 0 -1 -1 -1 -0 0 1 1 1 2 3 5 7 10 12 15 18 23 25 27 30 32 32 32 32 32 31 32 32 33 34
15 16 13 12 11 11 11 12 13 17 16 16 17 18 17 17 15 14 12 11 9 8 7 7 8 6 5 4 2 3 2 2 1 1 -0 -0 -1 -1 -3 -3 -3 -4 -5 -5 -5 -4 -4 -4 -4 -4 -3 -3 -2 -1 -1 -1 -1 -1 -1 -1 -1 -0 -0 0 3 5 7 10 12 15 18 20 22 25 27 29 31 32 33 33 33 33 33 34 34 34
14 12 15 13 12 12 11 10 13 12 12 13 17 18 17 15 15 12 9 9 9 8 7 6 5 4 4 3 2 1 0 -0 -0 -0 -1 -1 -2 -4 -5 -4 -5 -5 -6 -6 -6 -5 -4 -4 -4 -4 -4 -4 -2 -1 -2 -3 -3 -2 -2 -2 -1 -1 -1 0 2 6 7 10 12 15 17 20 23 25 27 28 30 32 33 33 34 34 34 33 34 35
12 11 13 12 12 10 10 13 15 14 13 14 16 16 14 14 13 11 10 9 8 7 6 4 3 2 2 1 1 -1 -1 -1 -2 -2 -3 -4 -5 -6 -6 -6 -6 -6 -7 -7 -6 -6 -6 -5 -5 -5 -5 -4 -2 -2 -3 -4 -4 -3 -3 -2 -2 -1 -1 1 3 4 5 7 9 12 14 18 22 26 28 28 29 31 32 32 34 34 35 34 34 35